When you browse on this site, cookies collect data to enhance your experience and personalize the content and advertising you see.
Visit our Privacy Policy to learn more. By continuing to use the site, you agree to this use of cookies and data.
  • în România
  • Lista ţărilor
  • Pe 7 zile
  • Temperatura apei
  • Hartă satelitară
  • Meteo pe hartă
  • Widget-uri
  • user-avatar
    Intrare

    Meteo pe oră la Arhus

    Astăzi, 25 Mai, Sâmbătă

    Timp Temperatura Precipitaţii Vânt Presiune Umiditate
    00:00 +7°C° 0 mm 5 m/s 754 mmHg 93%
    01:00 +7°C° 0 mm 5 m/s 755 mmHg 92%
    02:00 +7°C° 0 mm 5 m/s 755 mmHg 93%
    03:00 +7°C° 0 mm 5 m/s 755 mmHg 93%
    04:00 +7°C° 0 mm 5 m/s 755 mmHg 93%
    05:00 +8°C° 0 mm 5 m/s 755 mmHg 90%
    06:00 +9°C° 0 mm 5 m/s 755 mmHg 87%
    07:00 +12°C° 0 mm 5 m/s 755 mmHg 84%
    08:00 +13°C° 0 mm 6 m/s 756 mmHg 80%
    09:00 +14°C° 0 mm 6 m/s 756 mmHg 75%
    10:00 +15°C° 0 mm 6 m/s 756 mmHg 71%
    11:00 +15°C° 0 mm 6 m/s 756 mmHg 69%
    12:00 +16°C° 0 mm 6 m/s 756 mmHg 66%
    13:00 +16°C° 0 mm 7 m/s 756 mmHg 64%
    14:00 +16°C° 0 mm 7 m/s 756 mmHg 66%
    15:00 +15°C° 0 mm 7 m/s 756 mmHg 68%
    16:00 +14°C° 0 mm 7 m/s 756 mmHg 70%
    17:00 +13°C° 0 mm 6 m/s 756 mmHg 72%
    18:00 +11°C° 0 mm 6 m/s 756 mmHg 74%
    19:00 +11°C° 0 mm 6 m/s 755 mmHg 77%
    20:00 +10°C° 0 mm 6 m/s 756 mmHg 78%
    21:00 +9°C° 0 mm 6 m/s 756 mmHg 80%
    22:00 +8°C° 0 mm 6 m/s 756 mmHg 82%
    23:00 +8°C° 0 mm 6 m/s 755 mmHg 81%

    Mâine, 26 Mai, Duminică

    Timp Temperatura Precipitaţii Vânt Presiune Umiditate
    00:00 +8°C° 0 mm 6 m/s 755 mmHg 81%
    01:00 +8°C° 0 mm 6 m/s 755 mmHg 81%
    02:00 +8°C° 0.2 mm 6 m/s 754 mmHg 84%
    03:00 +8°C° 0.2 mm 6 m/s 754 mmHg 87%
    04:00 +8°C° 0.2 mm 6 m/s 753 mmHg 91%
    05:00 +9°C° 0.1 mm 6 m/s 753 mmHg 91%
    06:00 +9°C° 0.1 mm 7 m/s 752 mmHg 90%
    07:00 +9°C° 0.1 mm 7 m/s 752 mmHg 90%
    08:00 +9°C° 0.3 mm 6 m/s 751 mmHg 91%
    09:00 +9°C° 0.3 mm 6 m/s 751 mmHg 91%
    10:00 +9°C° 0.3 mm 5 m/s 751 mmHg 92%
    11:00 +12°C° 0 mm 5 m/s 751 mmHg 82%
    12:00 +13°C° 0 mm 5 m/s 751 mmHg 72%
    13:00 +15°C° 0 mm 5 m/s 751 mmHg 62%
    14:00 +14°C° 0 mm 5 m/s 751 mmHg 63%
    15:00 +14°C° 0 mm 4 m/s 751 mmHg 63%
    16:00 +13°C° 0 mm 4 m/s 751 mmHg 63%
    17:00 +12°C° 0 mm 4 m/s 751 mmHg 67%
    18:00 +11°C° 0 mm 3 m/s 751 mmHg 71%
    19:00 +10°C° 0 mm 3 m/s 751 mmHg 75%
    20:00 +9°C° 0 mm 2 m/s 751 mmHg 77%
    21:00 +9°C° 0 mm 2 m/s 750 mmHg 79%
    22:00 +9°C° 0 mm 1 m/s 750 mmHg 81%
    23:00 +8°C° 0 mm 1 m/s 750 mmHg 84%

    Poimâine, 27 Mai, Luni

    Timp Temperatura Precipitaţii Vânt Presiune Umiditate
    00:00 +8°C° 0 mm 1 m/s 750 mmHg 86%
    01:00 +7°C° 0 mm 1 m/s 750 mmHg 88%
    02:00 +6°C° 0.1 mm 2 m/s 750 mmHg 88%
    03:00 +7°C° 0.1 mm 2 m/s 750 mmHg 89%
    04:00 +7°C° 0.1 mm 2 m/s 750 mmHg 89%
    05:00 +8°C° 0 mm 3 m/s 750 mmHg 86%
    06:00 +9°C° 0 mm 3 m/s 750 mmHg 84%
    07:00 +8°C° 0 mm 4 m/s 750 mmHg 81%
    08:00 +10°C° 0 mm 4 m/s 750 mmHg 78%
    09:00 +11°C° 0 mm 4 m/s 750 mmHg 74%
    10:00 +10°C° 0 mm 5 m/s 750 mmHg 71%
    11:00 +10°C° 0 mm 5 m/s 751 mmHg 71%
    12:00 +10°C° 0 mm 5 m/s 751 mmHg 70%
    13:00 +10°C° 0 mm 5 m/s 751 mmHg 70%
    14:00 +10°C° 0 mm 5 m/s 751 mmHg 69%
    15:00 +11°C° 0 mm 6 m/s 751 mmHg 67%
    16:00 +11°C° 0 mm 6 m/s 751 mmHg 66%
    17:00 +10°C° 0 mm 5 m/s 752 mmHg 67%
    18:00 +10°C° 0 mm 5 m/s 752 mmHg 69%
    19:00 +9°C° 0 mm 5 m/s 752 mmHg 71%
    20:00 +8°C° 0 mm 5 m/s 752 mmHg 75%
    21:00 +6°C° 0 mm 4 m/s 752 mmHg 79%
    22:00 +5°C° 0 mm 4 m/s 752 mmHg 83%
    23:00 +5°C° 0 mm 4 m/s 752 mmHg 84%

    28 Mai, Marţi

    Timp Temperatura Precipitaţii Vânt Presiune Umiditate
    00:00 +4°C° 0 mm 4 m/s 752 mmHg 85%
    01:00 +4°C° 0 mm 4 m/s 752 mmHg 86%
    02:00 +4°C° 0 mm 4 m/s 752 mmHg 87%
    03:00 +4°C° 0 mm 4 m/s 752 mmHg 88%
    04:00 +3°C° 0 mm 3 m/s 752 mmHg 89%
    05:00 +5°C° 0 mm 3 m/s 752 mmHg 84%
    06:00 +7°C° 0 mm 3 m/s 753 mmHg 79%
    07:00 +8°C° 0 mm 4 m/s 753 mmHg 74%
    08:00 +8°C° 0 mm 4 m/s 753 mmHg 71%
    09:00 +10°C° 0 mm 4 m/s 753 mmHg 68%
    10:00 +11°C° 0 mm 4 m/s 753 mmHg 65%
    11:00 +12°C° 0 mm 3 m/s 754 mmHg 64%
    12:00 +12°C° 0 mm 3 m/s 754 mmHg 64%
    13:00 +12°C° 0 mm 3 m/s 754 mmHg 63%
    14:00 +12°C° 0 mm 4 m/s 754 mmHg 62%
    15:00 +13°C° 0 mm 4 m/s 754 mmHg 60%
    16:00 +13°C° 0 mm 4 m/s 754 mmHg 59%
    17:00 +12°C° 0 mm 4 m/s 754 mmHg 62%
    18:00 +11°C° 0 mm 4 m/s 755 mmHg 65%
    19:00 +10°C° 0 mm 4 m/s 755 mmHg 68%
    20:00 +7°C° 0 mm 4 m/s 755 mmHg 73%
    21:00 +6°C° 0 mm 4 m/s 755 mmHg 77%
    22:00 +4°C° 0 mm 3 m/s 756 mmHg 81%
    23:00 +4°C° 0 mm 3 m/s 756 mmHg 83%

    29 Mai, Miercuri

    Timp Temperatura Precipitaţii Vânt Presiune Umiditate
    00:00 +4°C° 0 mm 3 m/s 756 mmHg 85%
    01:00 +3°C° 0 mm 3 m/s 757 mmHg 87%
    02:00 +3°C° 0 mm 4 m/s 757 mmHg 85%
    03:00 +3°C° 0 mm 4 m/s 757 mmHg 84%
    04:00 +3°C° 0 mm 4 m/s 757 mmHg 83%
    05:00 +3°C° 0 mm 5 m/s 758 mmHg 78%
    06:00 +6°C° 0 mm 5 m/s 758 mmHg 72%
    07:00 +7°C° 0 mm 6 m/s 758 mmHg 67%
    08:00 +8°C° 0 mm 6 m/s 759 mmHg 64%
    09:00 +9°C° 0 mm 6 m/s 759 mmHg 61%
    10:00 +10°C° 0 mm 6 m/s 760 mmHg 58%
    11:00 +10°C° 0 mm 6 m/s 760 mmHg 57%
    12:00 +11°C° 0 mm 6 m/s 761 mmHg 56%
    13:00 +12°C° 0 mm 5 m/s 761 mmHg 55%
    14:00 +12°C° 0 mm 5 m/s 761 mmHg 55%
    15:00 +12°C° 0 mm 5 m/s 761 mmHg 56%
    16:00 +12°C° 0 mm 5 m/s 761 mmHg 56%
    17:00 +10°C° 0 mm 5 m/s 762 mmHg 61%
    18:00 +11°C° 0 mm 4 m/s 762 mmHg 65%
    19:00 +10°C° 0 mm 3 m/s 762 mmHg 70%
    20:00 +9°C° 0 mm 3 m/s 762 mmHg 74%
    21:00 +7°C° 0 mm 3 m/s 762 mmHg 79%
    22:00 +5°C° 0 mm 3 m/s 763 mmHg 84%
    23:00 +4°C° 0 mm 3 m/s 762 mmHg 85%

    30 Mai, Joi

    Timp Temperatura Precipitaţii Vânt Presiune Umiditate
    00:00 +4°C° 0 mm 3 m/s 762 mmHg 85%
    01:00 +4°C° 0 mm 3 m/s 762 mmHg 86%
    02:00 +4°C° 0 mm 3 m/s 762 mmHg 85%
    03:00 +4°C° 0 mm 4 m/s 762 mmHg 84%
    04:00 +4°C° 0 mm 4 m/s 762 mmHg 83%
    05:00 +6°C° 0 mm 5 m/s 761 mmHg 79%
    06:00 +7°C° 0 mm 6 m/s 761 mmHg 75%
    07:00 +8°C° 0 mm 7 m/s 760 mmHg 71%
    08:00 +8°C° 0.4 mm 7 m/s 759 mmHg 76%
    09:00 +7°C° 0.4 mm 8 m/s 759 mmHg 81%
    10:00 +9°C° 0.4 mm 8 m/s 758 mmHg 87%
    11:00 +8°C° 0.7 mm 9 m/s 757 mmHg 87%
    12:00 +8°C° 0.7 mm 10 m/s 757 mmHg 88%
    13:00 +9°C° 0.7 mm 11 m/s 756 mmHg 89%
    14:00 +9°C° 0.2 mm 10 m/s 755 mmHg 90%
    15:00 +9°C° 0.2 mm 10 m/s 755 mmHg 91%
    16:00 +11°C° 0.2 mm 9 m/s 754 mmHg 91%
    17:00 +11°C° 0.5 mm 9 m/s 754 mmHg 92%
    18:00 +11°C° 0.5 mm 9 m/s 753 mmHg 93%
    19:00 +11°C° 0.5 mm 8 m/s 753 mmHg 94%
    20:00 +11°C° 0.1 mm 7 m/s 753 mmHg 94%
    21:00 +10°C° 0.1 mm 7 m/s 753 mmHg 94%
    22:00 +10°C° 0.1 mm 6 m/s 754 mmHg 93%
    23:00 +8°C° 0 mm 6 m/s 754 mmHg 91%
    Arată mai mult